www.pogodaiklimat.ru

Погода и климат >> Архив погоды >> Австралия >> Halls Creek Airport


ПОГОДА в Halls Creek Airport

  • Прогноз погоды в Halls Creek Airport
  • Монитор погоды в Halls Creek Airport
  • Климат города

АРХИВ ПОГОДЫ в Halls Creek Airport

Время (UTC), дата Ветер
(напр.,м/с)
 
Видим.   Явления Облачность Т
(С)
Тd
(С)
f
(%)
Тe
(С)
Тes
(С)
Комфортность P
(гПа)
Po
(гПа)
Тmin
(С)
Tmax
(С)
R
(мм)
R24
(мм)
S
(см)
04 20.05 В 7 н/о н/о +26.0 +0.6 19 +24 +24 комфорт 1015.2 968.7
06 20.05 В 7 н/о н/о +27.3 +2.4 20 +26 +26 жарко 1013.9 967.5
07 20.05 В 7 н/о н/о +27.5 +2.6 20 +26 +26 жарко 1013.5 967.1
09 20.05 В 5 н/о н/о +24.4 +2.5 24 +24 +24 комфорт 1014.9 968.4
10 20.05 В 5 н/о 8/0
[]
+23.2 +3.2 27 +23 +23 комфорт 1015.7 969.2
12 20.05 В 4 н/о н/о +21.4 +2.6 29 +21 +21 комфорт 1017.2 970.6
13 20.05 В 4 н/о н/о +20.3 +3.1 32 +21 +21 комфорт 1017.3 970.7 +27.7
15 20.05 В 6 н/о н/о +20.4 +2.7 31 +21 +21 комфорт 1017.1 970.5
16 20.05 В 6 н/о н/о +19.7 +2.6 32 +20 +20 1016.8 970.2
18 20.05 В 6 н/о н/о +18.7 +0.8 30 +18 +18 1016.1 969.6
19 20.05 В 6 н/о н/о +17.9 +0.6 31 +17 +17 1016.0 969.5
21 20.05 В 7 н/о н/о +17.1 +0.3 32 +16 +16 1016.8 970.2
22 20.05 В 7 н/о н/о +16.8 0.0 32 +16 +16 1018.1 971.5
00 21.05 В 8 н/о н/о +20.1 -0.5 25 +20 +20 1018.7 972.0
01 21.05 В 7 н/о н/о +22.0 -0.7 22 +21 +21 комфорт 1018.8 972.1 +16.6
03 21.05 В 9 н/о н/о +25.6 +1.0 20 +24 +24 комфорт 1016.4 969.8
04 21.05 В 7 н/о н/о +26.6 +1.8 20 +25 +25 комфорт 1015.6 969.1
06 21.05 В 7 н/о н/о +28.6 +2.7 19 +27 +27 жарко 1014.5 968.0
07 21.05 В 6 н/о н/о +28.2 +3.1 20 +26 +26 жарко 1014.5 968.0
09 21.05 В 5 н/о н/о +25.3 +3.3 24 +24 +24 комфорт 1016.0 969.5
10 21.05 В 4 н/о 3/0
[]
+23.9 +3.8 27 +23 +23 комфорт 1016.7 970.1
12 21.05 В 5 н/о н/о +23.1 +3.1 27 +23 +23 комфорт 1018.3 971.7
13 21.05 В 3 н/о н/о +21.1 +3.3 31 +21 +21 комфорт 1018.7 972.0 +28.9
15 21.05 В 5 н/о н/о +20.9 +3.6 32 +21 +21 комфорт 1018.3 971.7
16 21.05 В 5 н/о н/о +20.3 +3.1 32 +21 +21 комфорт 1017.8 971.2
18 21.05 В 5 н/о н/о +18.8 +0.9 30 +19 +19 1017.2 970.6
19 21.05 В 7 н/о н/о +18.7 -0.2 28 +18 +18 1017.0 970.4
21 21.05 В 7 н/о н/о +16.9 -0.3 31 +16 +16 1017.8 971.2
22 21.05 В 7 н/о 1/0
[]
+16.5 -0.7 31 +15 +15 1018.3 971.7
00 22.05 В 9 н/о н/о +19.1 +0.2 28 +18 +18 1019.6 972.9
01 22.05 В 9 н/о 10/0
[]
+19.7 -0.3 26 +19 +19 1019.7 973.0 +16.4
03 22.05 В 6 н/о н/о +22.8 -0.6 21 +22 +22 комфорт 1018.5 971.8
04 22.05 В 6 н/о 6/0
[]
+24.1 +0.4 21 +23 +26 комфорт 1017.0 970.4
06 22.05 В 5 н/о н/о +25.5 +0.2 19 +24 +24 комфорт 1015.4 968.9
07 22.05 ЮВ 7 н/о 8/0
[]
+25.5 +0.2 19 +24 +25 комфорт 1014.8 968.3
09 22.05 В 3 н/о н/о +23.5 +0.6 22 +23 +23 комфорт 1016.0 969.5
10 22.05 ЮВ 1 н/о 9/0
[]
+21.7 +1.4 26 +21 +21 комфорт 1016.8 970.2
12 22.05 В 3 н/о н/о +20.9 +0.7 26 +21 +21 комфорт 1018.2 971.6
13 22.05 В 3 н/о 3/0
[]
+20.6 +1.0 27 +21 +21 комфорт 1018.3 971.7 +26.1
15 22.05 В 4 н/о н/о +19.5 +0.5 28 +20 +20 1018.1 971.5
16 22.05 В 3 н/о 10/0
[]
+18.1 +0.3 30 +18 +18 1018.2 971.6
18 22.05 В 6 н/о н/о +18.8 -1.1 26 +18 +18 1016.9 970.3
19 22.05 В 5 н/о 3/0
[]
+17.9 -1.3 27 +18 +18 1016.7 970.1
21 22.05 В 6 н/о н/о +18.7 -2.3 24 +18 +18 1017.2 970.6
22 22.05 В 7 н/о 10/0
[]
+18.5 -2.4 24 +18 +18 1017.6 971.0
00 23.05 В 8 н/о н/о +20.7 -2.4 21 +20 +20 1018.1 971.5
01 23.05 В 12 н/о 5/0
[]
+22.7 -2.1 19 +21 +21 комфорт 1017.5 970.9 +17.7
03 23.05 СВ 11 н/о н/о +24.7 -2.0 17 +23 +23 комфорт 1014.8 968.3
04 23.05 СВ 7 н/о 6/0
[]
+24.8 -1.9 17 +23 +25 комфорт 1014.5 968.0
06 23.05 В 4 н/о н/о +25.8 -1.9 16 +24 +24 комфорт 1013.7 967.3
07 23.05 ЮВ 4 н/о 10/0
[]
+25.9 -1.8 16 +24 +25 комфорт 1013.6 967.2
09 23.05 ЮВ 3 н/о н/о +24.4 -1.4 18 +23 +23 комфорт 1014.3 967.8
10 23.05 ЮВ 4 н/о 6/0
[]
+23.2 -1.0 20 +22 +22 комфорт 1014.9 968.4
12 23.05 ЮВ 5 н/о н/о +22.0 -0.7 22 +21 +21 комфорт 1016.0 969.5
13 23.05 ЮВ 4 н/о 4/0
[]
+21.0 -0.9 23 +21 +21 комфорт 1016.4 969.8 +26.6
15 23.05 В 2 н/о н/о +19.0 -0.9 26 +20 +20 1016.3 969.7
16 23.05 В 4 н/о 1/0
[]
+18.1 -0.7 28 +18 +18 1015.5 969.0
18 23.05 В 2 н/о н/о +16.3 -0.8 31 +17 +17 1015.3 968.8
19 23.05 В 3 н/о н/о +16.3 -0.8 31 +16 +16 1014.9 968.4
21 23.05 В 3 н/о н/о +13.7 -0.3 38 +13 +13 1015.3 968.8
22 23.05 СВ 3 н/о н/о +12.9 0.0 41 +12 +12 1015.7 969.2
00 24.05 В 6 н/о н/о +20.4 -0.3 25 +20 +20 1016.8 970.2
01 24.05 В 7 н/о н/о +21.9 -0.8 22 +21 +21 комфорт 1016.5 969.9 +12.5
03 24.05 В 5 н/о н/о +25.6 -0.5 18 +24 +24 комфорт 1014.7 968.2
04 24.05 В 5 н/о н/о +26.7 -0.3 17 +25 +25 комфорт 1013.3 966.9
06 24.05 В 4 н/о н/о +28.5 -2.6 13 +26 +26 жарко 1011.6 965.3
07 24.05 ЮВ 5 н/о н/о +28.9 -3.3 12 +26 +26 жарко 1011.5 965.2
09 24.05 В 3 н/о н/о +25.3 -3.2 15 +23 +23 комфорт 1012.5 966.1
10 24.05 ЮВ 2 н/о н/о +19.2 -1.8 24 +20 +20 1013.1 966.7
12 24.05 В 2 н/о н/о +16.4 -1.7 29 +17 +17 1014.3 967.8
13 24.05 штиль 0 н/о н/о +15.9 -1.6 30 +16 +16 1014.2 967.7 +29.3
15 24.05 В 1 н/о н/о +13.0 -1.3 37 +14 +14 1014.0 967.6
16 24.05 штиль 0 н/о н/о +12.7 -0.9 39 +13 +13 1013.7 967.3
18 24.05 штиль 0 н/о н/о +11.2 -0.9 43 +11 +11 1013.1 966.7
19 24.05 штиль 0 н/о н/о +10.6 -1.1 44 +10 +10 1013.1 966.7
21 24.05 СВ 2 н/о н/о +13.4 -0.6 38 +13 +13 1013.0 966.6
22 24.05 СВ 2 н/о н/о +10.3 -0.5 47 +9 +9 1013.5 967.1
00 25.05 СВ 5 н/о н/о +22.4 -1.0 21 +21 +21 комфорт 1014.3 967.8
01 25.05 В 7 н/о н/о +25.9 -1.8 16 +24 +24 комфорт 1014.2 967.7 +9.5
03 25.05 СВ 5 н/о н/о +28.4 -1.6 14 +26 +26 жарко 1013.1 966.7
04 25.05 СВ 4 н/о н/о +29.6 -2.8 12 +26 +26 жарко 1012.2 965.8
06 25.05 СВ 4 н/о н/о +30.5 -3.3 11 +27 +27 жарко 1010.7 964.4
07 25.05 СВ 2 н/о н/о +30.6 -3.2 11 +27 +27 жарко 1010.4 964.1
09 25.05 В 3 н/о н/о +27.1 -1.7 15 +25 +25 комфорт 1011.0 964.7
10 25.05 СВ 2 н/о н/о +23.1 -0.4 21 +22 +22 комфорт 1011.3 965.0
12 25.05 штиль 0 н/о н/о +16.0 +0.2 34 +16 +16 1013.0 966.6
13 25.05 штиль 0 н/о н/о +14.8 -0.1 36 +15 +15 1013.0 966.6 +31.3
15 25.05 ЮВ 2 н/о н/о +14.4 +0.3 38 +15 +15 1012.8 966.4
16 25.05 штиль 0 н/о н/о +12.6 +0.4 43 +13 +13 1012.7 966.3
18 25.05 штиль 0 н/о н/о +11.2 +0.6 48 +11 +11 1012.6 966.2
19 25.05 СЗ 1 н/о н/о +11.2 +0.3 47 +12 +12 1012.7 966.3
21 25.05 штиль 0 н/о н/о +10.3 +0.6 51 +10 +10 1013.0 966.6
22 25.05 штиль 0 н/о н/о +9.6 +1.0 55 +9 +9 1013.5 967.1
00 26.05 СВ 2 н/о н/о +23.2 +0.3 22 +22 +22 комфорт 1014.6 968.1
01 26.05 В 4 н/о н/о +26.2 -0.8 17 +24 +24 комфорт 1014.8 968.3 +9.6
03 26.05 СВ 4 н/о н/о +29.6 +0.2 15 +27 +27 жарко 1013.5 967.1
04 26.05 С 3 н/о н/о +29.9 -0.5 14 +27 +27 жарко 1012.8 966.4
06 26.05 Ю 2 н/о н/о +31.0 +0.4 14 +28 +28 жарко 1011.1 964.8
07 26.05 СЗ 2 н/о н/о +30.7 +0.2 14 +28 +28 жарко 1010.9 964.6
09 26.05 штиль 0 н/о н/о +27.1 +1.5 19 +25 +25 комфорт 1011.8 965.5
10 26.05 штиль 0 н/о н/о +20.2 +1.6 29 +20 +20 1012.4 966.0
12 26.05 В 2 н/о н/о +17.9 +1.8 34 +19 +19 1013.5 967.1
13 26.05 штиль 0 н/о н/о +16.4 +2.8 40 +16 +16 1013.7 967.3 +31.7
15 26.05 штиль 0 н/о н/о +14.3 +2.5 45 +14 +14 1013.5 967.1
16 26.05 ЮЗ 1 н/о н/о +14.9 +3.1 45 +16 +16 1013.5 967.1
18 26.05 штиль 0 н/о н/о +12.7 +2.6 50 +13 +13 1012.9 966.5
19 26.05 штиль 0 н/о н/о +11.6 +2.4 53 +11 +11 1012.8 966.4
21 26.05 штиль 0 н/о н/о +10.6 +2.4 57 +10 +10 1013.3 966.9
22 26.05 штиль 0 н/о н/о +10.1 +2.7 60 +10 +10 1013.5 967.1
00 27.05 СВ 1 н/о н/о +24.1 +2.9 25 +23 +23 комфорт 1014.8 968.3
01 27.05 СВ 4 н/о н/о +28.3 +2.5 19 +26 +26 жарко 1014.9 968.4 +10.2
03 27.05 СВ 3 н/о н/о +30.6 +0.1 14 +28 +28 жарко 1013.7 967.3
04 27.05 СЗ 3 н/о н/о +31.4 -0.3 13 +28 +28 жарко 1012.7 966.3

 

Местоположение метеостанции Halls Creek Airport (Западная Австралия, Австралия): широта -18.23 долгота 127.66 высота над уровнем моря 424 м.

В архиве по умолчанию представлена погода в Halls Creek Airport за последнюю неделю. Архивные данные за месяц целиком и за предыдущие месяцы, начиная с января 2011 года, Вы можете получить, выбрав интересующий диапазон дат из раскрывающегося списка и нажав кнопку "Ввод!".


*Определитесь, кто Вы:
робот инопланетянин человек

Внимание! Время в таблицах - всемирное. Для получения местного времени необходимо прибавить поправку, которая в Halls Creek Airport равна 8 ч.

Смотрите также архив погоды в соседних городах и на ближайших метеорологических станциях:

Погода в Argyle Aero (Западная Австралия, Австралия) (197 км)
Погода в Fitzroy Crossing Aero (Западная Австралия, Австралия) (222 км)
Погода в Kununurra (Западная Австралия, Австралия) (294 км)
Погода в Wyndham Aero (Западная Австралия, Австралия) (308 км)
Погода в Lajamanu (Северная территория, Австралия) (314 км)
Погода в Rabbit Flat (Северная территория, Австралия) (329 км)
Погода в Victoria River Downs (Северная территория, Австралия) (411 км)
Погода в Curtin Aero (Западная Австралия, Австралия) (413 км)
Погода в Derby Aero (Северная территория, Австралия) (435 км)
Погода в Kalumburu (Западная Австралия, Австралия) (450 км)

Пояснения к столбцам:

Ветер - указаны скорость ветра в м/с - средняя за 10 мин, порывы в срок и между сроками (в фигурных скобках) и направление, откуда дует ветер: С - северный, СВ - северо-восточный, В - восточный, ЮВ - юго-восточный, Ю - южный, ЮЗ - юго-западный, З - западный, СЗ - северо-западный.
Видимость - горизонтальная дальность видимости в метрах или километрах. При видимости от 1 до 10 км при отсутствии осадков обычно наблюдается дымка, при ухудшении видимости до 1 км и менее - туман. В сухую погоду видимость может ухудшаться дымом, пылью или мглою.
Явления - указаны атмосферные явления, наблюдавшиеся в срок или в последний час перед сроком; фигурными скобками обозначены явления, наблюдавшиеся между сроками (за 1-3 часа до срока); квадратными скобками обозначены град или гололедные отложения с указанием их диаметра в мм.
Облачность - указаны через наклонную черту общая и нижняя облачность в баллах и высота нижней границы облаков в метрах; квадратными скобками обозначены формы облаков: Ci - перистые, Cs - перисто-слоистые, Cc - перисто-кучевые, Ac - высококучевые, As - высокослоистые, Sc - слоисто-кучевые, Ns - слоисто-дождевые, Cu - кучевые, Cb - кучево-дождевые. Подробнее классификацию облаков см. в Атласе облаков (PDF).
T - Температура воздуха - температура, измеренная на высоте 2 м над землей.
Td - Температура точки росы - температура, при понижении до которой содержащийся в воздухе водяной пар достигнет насыщения.
f - Относительная влажность воздуха - влажноcть воздуха, измеренная на высоте 2 м над землей.
Te - Эффективная температура - температура, которую ощущает одетый по сезону человек в тени. Характеристика душности погоды. При расчете учитывается влияние влажности воздуха и скорости ветра на теплоощущения человека.
Tes - Эффективная температура на солнце - температура, которую ощущает человек, с поправкой на солнечный нагрев. Характеристика знойности погоды. Зависит от высоты солнца над горизонтом, облачности и скорости ветра. Ночью, в пасмурную погоду, а также при ветре 12 м/с и более поправка равна нулю.
P - Атмосферное давление - приведенное к уровню моря атмосферное давление.
Po - Атмосферное давление - измеренное на уровне метеостанции атмосферное давление.
Tmin - Минимальная температура - минимум температуры воздуха на высоте 2 м над землей.
Tmax - Максимальная температура - максимум температуры воздуха на высоте 2 м над землей.
R - Количество осадков - Количество выпавших осадков за период времени, мм. При наведении курсора мыши на число - период времени, за который выпало указанное количество осадков.
R24 - Количество осадков - Количество выпавших осадков за 24 часа, мм.
S - Снежный покров - Высота снежного покрова, см. При наведении курсора мыши на число - состояние снежного покрова и степень покрытия местности в баллах.